weather.gov     
National Weather Service

Regional Weather Roundup
NWS Homepage
This page is being discontinued on March 12, 2014.
The same data is available at this site. Please update your bookmarks.
Thank you, and we apologize for the inconvenience.
Please send an email to SR-SRH.Webmaster@noaa.gov with any concerns.


Current Version
Previous Version:    01  02  03  04  05  06  07  08  09  10  11  12  13  14  15  16  17  18  19  20  21  22  23  24  25  26  
[Printable]
554
ASUS42 KCAE 210010
RWRCAE
REGIONAL WEATHER ROUNDUP
NATIONAL WEATHER SERVICE COLUMBIA SC
800 PM EDT MON OCT 20 2014

NOTE: "FAIR" INDICATES FEW OR NO CLOUDS BELOW 12,000 FEET WITH NO
SIGNIFICANT WEATHER AND/OR OBSTRUCTIONS TO VISIBILITY.

NOT ALL STATIONS ARE QUALITY CONTROLLED BY THE NATIONAL
WEATHER SERVICE. USE DATA WITH CAUTION...ESPECIALLY
DEWPOINT OBSERVATIONS.

SCZ001>056-GAZ040-063>065-077-210100-
...UPSTATE SOUTH CAROLINA...

CITY           SKY/WX    TMP DP  RH WIND       PRES   REMARKS
ANDERSON       PTCLDY    60  53  77 SW7       30.00S
6HR MIN TEMP:  60; 6HR MAX TEMP:  71;

LIBERTY        FAIR      58  53  81 MISG      30.00S
6HR MIN TEMP:  39; 6HR MAX TEMP:  79;

SPARTANBURG    FAIR      59  52  77 CALM      30.00R
CLEMSON        PTCLDY    64  50  60 SW5       30.00S
6HR MIN TEMP:  64; 6HR MAX TEMP:  72;

GREENVILLE     PTCLDY    63  50  62 SW3       30.01R
6HR MIN TEMP:  63; 6HR MAX TEMP:  71;

GREENWOOD      CLEAR     57  52  83 CALM      30.02R
6HR MIN TEMP:  57; 6HR MAX TEMP:  71;

GREER          PTCLDY    58  51  78 S7        29.99R
6HR MIN TEMP:  58; 6HR MAX TEMP:  69;

ROCK HILL      CLEAR     54  51  90 CALM      30.01R
6HR MIN TEMP:  54; 6HR MAX TEMP:  71;

LAURENS        FAIR      59  48  67 CALM      30.01S


...CENTRAL SOUTH CAROLINA...

CITY           SKY/WX    TMP DP  RH WIND       PRES   REMARKS
COLUMBIA APT   PTCLDY    62  54  74 CALM      30.00R
6HR MIN TEMP:  61; 6HR MAX TEMP:  76;

COLUMBIA OWENS CLEAR     63  55  75 CALM      30.01R
6HR MIN TEMP:  63; 6HR MAX TEMP:  75;

DARLINGTON     PTCLDY    61  52  72 CALM      30.01S
6HR MIN TEMP:  61; 6HR MAX TEMP:  73;

FLORENCE       PTCLDY    63  55  75 CALM      30.00R
6HR MIN TEMP:  63; 6HR MAX TEMP:  76;

MCENTIRE ANGB  PTCLDY    60  56  87 N1        30.01R
6HR MIN TEMP:  60; 6HR MAX TEMP:  75;

ORANGEBURG     FAIR      63  55  75 CALM      30.00R
6HR MIN TEMP:  63; 6HR MAX TEMP:  75;

SUMTER SHAW    CLEAR     64  56  76 SE2       29.99R
6HR MIN TEMP:  64; 6HR MAX TEMP:  76;

NEWBERRY       FAIR      57  54  88 CALM      30.03S
AIKEN          FAIR      63  52  67 NW6       30.04R
BARNWELL       FAIR      61  55  82 CALM      30.00S
MANNING        FAIR      63  63 100 CALM      30.01R
CAMDEN         FAIR      61  54  77 CALM      30.01R
LANCASTER      FAIR      61  50  67 CALM      30.01R
WINNSBORO      FAIR      59  50  72 S3        30.00R


...EASTERN AND COASTAL SOUTH CAROLINA...

CITY           SKY/WX    TMP DP  RH WIND       PRES   REMARKS
MYRTLE BEACH   CLEAR     70  59  68 S5        30.01R
N MYRTLE BCH   CLEAR     63  60  90 CALM      30.01R
6HR MIN TEMP:  63; 6HR MAX TEMP:  73;

CONWAY         FAIR      59  59 100 CALM      30.01S
MARION         MOCLDY    64  57  77 CALM      30.01R
HARTSVILLE     FAIR      61  43  51 CALM      30.01S
FLORENCE       PTCLDY    63  55  75 CALM      30.00R
6HR MIN TEMP:  63; 6HR MAX TEMP:  76;

DARLINGTON     PTCLDY    61  52  72 CALM      30.01S
6HR MIN TEMP:  61; 6HR MAX TEMP:  73;

CHARLESTON APT PTCLDY    68  58  70 S3        30.01R
6HR MIN TEMP:  67; 6HR MAX TEMP:  78;

MOUNT PLEASANT FAIR      63  61  94 CALM      30.01R
WALTERBORO     PTCLDY    68  59  73 S3        30.01R
BEAUFORT       MOCLDY    68  61  78 CALM      30.00R
6HR MIN TEMP:  67; 6HR MAX TEMP:  80;



...EASTERN GEORGIA...

CITY           SKY/WX    TMP DP  RH WIND       PRES   REMARKS
AUGUSTA BUSH F MOCLDY    62  50  64 N5        30.00R
6HR MIN TEMP:  60; 6HR MAX TEMP:  77;

AUGUSTA DANIEL CLEAR     68  49  50 NW6       30.01R
6HR MIN TEMP:  68; 6HR MAX TEMP:  77;

THOMSON        CLEAR     60  60  99 CALM      30.06R
6HR MIN TEMP:  60; 6HR MAX TEMP:  76;

WASHINGTON     FAIR      63  59  88 CALM      30.02R
CLAXTON        FAIR      70  68  94 CALM      29.99R
SYLVANIA       CLOUDY    72  67  85 SE3       30.01R
6HR MIN TEMP:  71; 6HR MAX TEMP:  81;

STATESBORO     CLOUDY    67  63  87 CALM      30.00R
6HR MIN TEMP:  66; 6HR MAX TEMP:  78;

SAVANNAH       CLOUDY    71  61  70 SE5       29.99S
6HR MIN TEMP:  71; 6HR MAX TEMP:  80;



...SOUTHERN NORTH CAROLINA...

CITY           SKY/WX    TMP DP  RH WIND       PRES   REMARKS
CHARLOTTE      PTCLDY    62  49  62 CALM      30.01R
6HR MIN TEMP:  62; 6HR MAX TEMP:  71;

MONROE         CLEAR     57  49  74 S3        30.00R
6HR MIN TEMP:  57; 6HR MAX TEMP:  71;

WADESBORO      CLEAR     57  49  75 CALM      30.00S
ROCKINGHAM     CLEAR     61  52  71 CALM      30.00S
6HR MIN TEMP:  61; 6HR MAX TEMP:  72;

RUTHERFORDTON  LGT RAIN  62  51  67 CALM      30.00R
6HR MIN TEMP:  62; 6HR MAX TEMP:  70;

ASHEVILLE      LGT RAIN  58  51  78 S6        30.02R
6HR MIN TEMP:  58; 6HR MAX TEMP:  68; 6HR PCP: TRACE;


$$




U.S. Dept. of Commerce
NOAA National Weather Service
1325 East West Highway
Silver Spring, MD 20910
E-mail: w-nws.webmaster@noaa.gov
Page last modified: May 16, 2007
NATIONAL WEATHER SERVICE: for Safety, for Work, for Fun - FOR LIFE